Погода в Сусумане

Погода в Сусумане : погода сейчас, прогноз погоды и архив. Всё, что Вы хотите узнать о погоде в Сусумане!

Поиск расширенной информации на нашем сайте:

Другие новости

Новости СМИ2

Главная страница сайта

Новости сайта

02.10.2013

Напоминаем, что на нашем новом сайте вы можете получить высокодетализированные прогнозы погоды по пунктам России, СНГ и мира (включающие важные для авиации метеовеличины, такие как направление и скорость ветра, видимость, явления погоды, количество и форма облачности, нижняя и верхняя граница облачности), а также ознакомиться с разнообразными материалами по авиационной метеорологии и подборкой полезных ссылок на эту тему.

Сайт Метеоцентр.Азия посвящён разработке технологий оптимизации авиаметеорологического обслуживания, включая проектирование и перспективное создание нескольких автоматизированных авиаметеорологических систем:
- система выпуска высокодетальных прогностических карт явлений погоды для нижнего воздушного пространства по России и ближнему зарубежью;
- система верификации прогнозов TAF (выпускаемых синоптиками официальных АМСГ РФ и ближнего зарубежья) и AUTOTAF (выпускаемых сайтом Метеоцентр.Азия) - выявление ошибок, онлайн-сопоставление с фактической погодой METAR, автоматическое внесение коррективов в прогнозы при резком отклонении фактической погоды от прогноза, подсчёт оправдываемости прогнозов по элементам и в целом;
- система обработки, анализа и отображения авиаметеорологической информации для применения провайдерами метеорологической информации.

Рекомендуем: Top100 бизнес и финансы базы данных предприятий россии.

Погода в Сусумане - сегодня

Время (UTC), дата Ветер
(°,м/с) 
Видим.   Явления Облачность Т
(°С)
Тd
(°С)
f(%) Тe
(°С)
Pmin
(гПа)
dP
(гПа)
Po
(мм)
O2
(г/м3)
Тmin Tmax R s Состояние
почвы
21 21.02.17 230 (ЮЗ) 20000 м    10/0 средняя, верхняя 
[Ac As|Cs]
-30.5 -33.9 72 -31  1021.6  -0.2  699  319  -32.7      26  неравномерный
сухой снег
100% 
00 22.02.17 тихо ()   20000 м  в посл. час снег  9/0 средняя, верхняя 
[Ac As|Cs]
-26 -30.6 65 -26  1019.3  -0.5  699  313           
03 22.02.17 010 (С) 20000 м    9/0 средняя, верхняя 
[Ac trans|Cs]
-17.4 -23.8 57 -22  1014.8  -1.3  698  302           
06 22.02.17 040 (СВ) 20000 м  позёмок  9/0 средняя, верхняя 
[Ac As|Cs]
-18.3 -23.8 62 -24  1014.6  -0.5  697  303           
09 22.02.17 010 (С) 5{10}  20000 м  позёмок  8/0 средняя, верхняя 
[Ac As|Ci fib]
-21.2 -25.7 67 -28  1015.9  0.3  698  306    -16.5  0.0     
12 22.02.17 020 (С) 20000 м  позёмок  9/0 верхняя 
[Ci fib]
-21.4 -25.8 68 -27  1016.3  0.3  698  307           
15 22.02.17 010 (С) 20000 м    9/0 
-21.8 -26.2 68 -28  1015.5  -0.1  697  307           
18 22.02.17 030 (СВ) 20000 м  позёмок  9/0 верхняя 
[Ci fib]
-26.9 -30.6 71 -35  1016.8  -0.5  697  313           
21 22.02.17 040 (СВ) 20000 м    8/0 средняя, верхняя 
[As trans|Ci fib]
-29.3 -32.4 75 -33  1017.3  -0.3  697  316  -29.3      25  неравномерный
сухой снег
100% 
00 23.02.17 030 (СВ) 20000 м    9/0 средняя, верхняя 
[Ac As|Cs]
-28.1 -32.5 66 -33  1015.5  -1.2  696  314  -29.9         
03 23.02.17 070 (В) 20000 м    9/0 средняя, верхняя 
[Ac As|Cs]
-18.6 -24.2 61 -25  1010.7  -1.2  695  302           
06 23.02.17 070 (В) 20000 м    9/0 средняя, верхняя 
[Ac As|Cs]
-18.2 -23.4 64 -23  1009.2  -1.3  694  301           
09 23.02.17 040 (СВ) 20000 м    8/0 средняя, верхняя 
[Ac As|Ci fib]
-20.1 -25 65 -26  1010.5  0.6  694  304    -17.8       
12 23.02.17 040 (СВ) 20000 м    6/0 средняя, верхняя 
[Ac trans|Ci fib]
-22.4 -27.3 64 -23  1011.8  0.4  695  306           
15 23.02.17 090 (В) 2{12}  20000 м    6/0 верхняя 
[Ci fib]
-21.1 -27.4 57 -24  1010.2  -1  694  305           
18 23.02.17 240 (ЮЗ) 20000 м    4/0 верхняя 
[Ci fib]
-26.7 -30.4 71 -30  1012.4  0.2  694  312           
21 23.02.17 220 (ЮЗ) 20000 м    3/1 1000 м средняя 
[Sc|Ac trans]
-28.4 -32.2 70 -34  1014  0.9  695  314  -28.7      25  неравномерный
сухой снег
100% 
00 24.02.17 070 (В) 20000 м  слаб. снег  9/6 1140 м средняя 
[Sc|Ac trans]
-20.7 -25.6 65 -25  1011.8  0.6  695  305           
03 24.02.17 060 (СВ) 20000 м  слаб. снег  10/8 1200 м средняя 
[Sc|Ac und]
-18.8 -24.5 61 -24  1010.6  0.6  695  302           
06 24.02.17 060 (СВ) 20000 м  слаб. снег  9/6 1170 м средняя 
[Sc|Ac As]
-19 -24.8 60 -24  1010.4  -0.3  694  302           
09 24.02.17 080 (В) 20000 м  {снег}  10/4 1000 м средняя 
[Sc|Ac und]
-20 -23.9 71 -20  1011.3  0.5  695  304    -18.4  0.0     
12 24.02.17 тихо ()   20000 м  слаб. снег  10/3 1000 м средняя 
[Sc|Ac As]
-21.6 -24 81 -22  1011.2  -0.5  694  305           
15 24.02.17 060 (СВ) 20000 м  слаб. снег  10/3 1000 м средняя 
[Sc|Ac As]
-20.4 -24 73 -26  1010.1  -0.7  694  304           
18 24.02.17 090 (В) 20000 м  слаб. снег  10/3 1000 м средняя 
[Sc|Ac As]
-20.9 -26.1 63 -25  1010.3  -0.1  694  304           
21 24.02.17 070 (В) 4{10}  20000 м  слаб. снег  10/0 средняя 
[Ac As]
-22.5 -28.4 59 -28  1010.8  0.1  694  306  -22.5    0.2  25  неравномерный
сухой снег
100% 
Время (UTC), дата Ветер
(°,м/с) 
Видим.   Явления Облачность Т
(°С)
Тd
(°С)
f(%) Тe
(°С)
Pmin
(гПа)
dP
(гПа)
Po
(мм)
O2
(г/м3)
Тmin Tmax R s Состояние
почвы

Для получения пояснительной информации подведите курсор к названию столбца.

ПОГОДА в Сусумане - архив

Всё, что Вы хотите узнать о погоде в Сусумане - удобно и подробно!

Выберите нужную дату (начиная с 1 января 2015* года) и нажмите кнопку "Найти".
Будут отображены архивные сводки погоды по пункту Сусуман, начиная с указанной даты.


Отображать данные в формате CSV (для использования в таблицах Excel)


Внимание! Наш архив погоды предназначен исключительно для личного некоммерческого использования в познавательных целях. Если Вам необходимы официальные справки о состоянии погоды (для производственных, юридических, коммерческих и т.п. целей), обращайтесь в органы Росгидромета.

*Примечание: данная дата относится к архиву по метеостанциям СССР (Россия, СНГ, Балтия).
Архив по метеостанциям Зарубежной Европы и Азии (кроме Китая) хранится 10 дней, по другим регионам земного шара (Китай, Африка, Америка, Австралия, Океания) - 1 день.

Сусуман - район местоположения метеостанции


Название, широта, долгота, высота метеостанции:
Сусуман 62.8°ш. 148.2°д. 655 м над ур. моря [Российская Федерация]

Дополнительная информация

В oтличие oт бoльшинства пoгoдных сайтoв мы публикуем пoдрoбную метеoинфoрмацию в детальнoм прoфессиoнальнoм фoрмате.

Характеристики температуры и влажнoсти вoздуха измеряются на высoте 2 м в тени вдали oт зданий и деревьев.
Скoрoсть ветра измеряется на высoте 10 м (на урoвне рoста челoвека скoрoсть ветра ниже в 1.5-2 раза). Если метеoстанция нахoдится в гoрoде или в лесу, тo скoрoсть ветра занижена на 2-4 м/с пo сравнению с oткрытым местoм. Скoрoсть ветра над акватoриями крупных рек и oзёр, а также на вершинах хoлмoв на 2-5 м/с выше, чем в oбычных услoвиях.
Атмoсфернoе давление в разных тoчках местнoсти мoжет значительнo oтличаться oт давления на метеoстанции, в зависимoсти oт услoвий рельефа (при пoдъёме на 10 м давление пoнижается примернo на 1 мм рт.ст.).